Location: Del Amo
(33.8464°N, 118.2104°W)
Time: 15:32:42
(UTC+00:00)

Tiros 1 despin weight - Pass Details

Date: 21 September 2024
Orbit: 573 x 615 km, 48.2° (Epoch: 04 October)

Event Time Altitude Azimuth Distance (km) Brightness Sun altitude
Exits shadow 12:43:46 - 317° (NW) 2,652 ? -12.6°
Reaches altitude 10° 12:46:04 10° 334° (NNW) 1,978 ? -12.1°
Maximum altitude 12:49:08 18° 16° (NNE) 1,542 ? -11.5°
Drops below altitude 10° 12:52:13 10° 59° (ENE) 1,978 ? -10.9°
Sets 12:55:12 0° 79° (E) 2,880 ? -10.2°
